Weather History for Jackson, WY

Change the Weather History Date:

Saturday, January 28, 2012

  Actual Average Record
Temperature  
Mean Temperature 11 °F -  
Max Temperature 24 °F 26 °F 50 °F (2008)
Min Temperature -2 °F 0 °F -33 °F (1980)
Degree Days  
Heating Degree Days 54    
Moisture  
Dew Point 2 °F    
Average Humidity 68    
Maximum Humidity 100    
Minimum Humidity 46    
Precipitation  
Precipitation 0.00 in - - ()
Sea Level Pressure  
Sea Level Pressure 30.35 in    
Wind  
Wind Speed 8 mph (SW)    
Max Wind Speed 23 mph    
Max Gust Speed 30 mph    
Visibility 10 miles    
Events      
Averages and records for this station are not official NWS values.
T = Trace of Precipitation, MM = Missing Value Source: NWS Daily Summary

Daily Weather History Graph

Daily Weather History Graph

Search for Another Location

Airport:

Trip Planner

Search our weather history database for the weather conditions in past years. The results will help you decide how hot, cold, wet, or windy it might be!

Date:

Astronomy

Jan. 28, 2012 Rise Set
Actual Time 7:43 AM MST 5:28 PM MST
Civil Twilight 7:13 AM MST 5:59 PM MST
Nautical Twilight 6:38 AM MST 6:33 PM MST
Astronomical Twilight 6:04 AM MST 7:07 PM MST
Moon 9:55 AM MST (1/28) 11:33 PM MST (1/28)
Length of Visible Light 10h 45m
Length of Day
9h 44m
Waxing Crescent, 28% of the Moon is Illuminated
Jan 28
Waxing Crescent
Jan 30
First Quarter
Feb 7
Full
Feb 14
Last Quarter
Feb 21
New

Hourly Weather History & Observations

Time (MST) Temp. Windchill Dew Point Humidity Pressure Visibility Wind Dir Wind Speed Gust Speed Precip Events Conditions
12:16 AM 10.4 °F -0.4 °F 3.2 °F 73% 30.32 in 10.0 mi South 6.9 mph - N/A   Clear
12:35 AM 8.6 °F -1.3 °F 3.2 °F 79% 30.32 in 10.0 mi SSW 5.8 mph - N/A   Clear
12:55 AM 10.4 °F 0.8 °F 3.2 °F 73% 30.31 in 10.0 mi SSW 5.8 mph - N/A   Clear
1:15 AM 8.6 °F 0.1 °F 1.4 °F 73% 30.31 in 10.0 mi SE 4.6 mph - N/A   Clear
1:35 AM 10.4 °F 4.0 °F 6.8 °F 85% 30.32 in 10.0 mi SW 3.5 mph - N/A   Clear
1:55 AM 10.4 °F -1.5 °F 1.4 °F 67% 30.31 in 10.0 mi SW 8.1 mph - N/A   Clear
2:16 AM 8.6 °F -3.7 °F 1.4 °F 73% 30.31 in 10.0 mi SW 8.1 mph - N/A   Clear
2:35 AM 8.6 °F -4.7 °F 1.4 °F 73% 30.31 in 10.0 mi SW 9.2 mph - N/A   Clear
2:55 AM 1.4 °F -6.2 °F -7.6 °F 66% 30.32 in 10.0 mi North 3.5 mph - N/A   Clear
3:15 AM -2.2 °F -16.8 °F -7.6 °F 78% 30.32 in 10.0 mi North 8.1 mph - N/A   Clear
3:35 AM -2.2 °F -22.2 °F -7.6 °F 78% 30.33 in 10.0 mi North 15.0 mph - N/A   Clear
3:55 AM -2.2 °F -18.9 °F -7.6 °F 78% 30.33 in 10.0 mi NNE 10.4 mph - N/A   Clear
4:15 AM -0.4 °F -13.4 °F -7.6 °F 72% 30.34 in 10.0 mi NNE 6.9 mph - N/A   Partly Cloudy
4:35 AM -0.4 °F -15.7 °F -7.6 °F 72% 30.34 in 10.0 mi ENE 9.2 mph - N/A   Scattered Clouds
4:55 AM -0.4 °F -14.7 °F -5.8 °F 78% 30.34 in 1.8 mi NE 8.1 mph - N/A   Mostly Cloudy
5:15 AM -2.2 °F -18.0 °F -7.6 °F 78% 30.33 in 5.0 mi NNE 9.2 mph - N/A   Partly Cloudy
5:35 AM -2.2 °F -15.6 °F -7.6 °F 78% 30.32 in 10.0 mi NE 6.9 mph - N/A   Clear
5:55 AM -0.4 °F -14.7 °F -0.4 °F 100% 30.33 in 10.0 mi NE 8.1 mph - N/A   Clear
6:15 AM -0.4 °F -14.7 °F -4.0 °F 85% 30.35 in 10.0 mi NNE 8.1 mph - N/A   Partly Cloudy
6:35 AM -0.4 °F -18.4 °F -7.6 °F 72% 30.35 in 10.0 mi NNE 12.7 mph - N/A   Mostly Cloudy
6:51 AM -0.4 °F -19.9 °F -4.0 °F 85% 30.35 in 10.0 mi North 15.0 mph - N/A   Overcast
7:53 AM -2.2 °F -16.8 °F -9.4 °F 71% 30.36 in 10.0 mi NE 8.1 mph - N/A   Scattered Clouds
8:52 AM -0.4 °F -14.7 °F -5.8 °F 78% 30.37 in 10.0 mi NE 8.1 mph - N/A   Partly Cloudy
9:53 AM 3.2 °F -9.1 °F -4.0 °F 72% 30.37 in 10.0 mi ENE 6.9 mph - N/A   Mostly Cloudy
10:51 AM 10.4 °F 2.2 °F 3.2 °F 73% 30.39 in 10.0 mi ENE 4.6 mph - N/A   Mostly Cloudy
11:57 AM 15.8 °F 8.6 °F 6.8 °F 68% 30.37 in 10.0 mi ENE 4.6 mph - N/A   Overcast
12:51 PM 21.2 °F 8.3 °F 8.6 °F 58% 30.36 in 10.0 mi South 13.8 mph - N/A   Overcast
1:54 PM 21.2 °F 11.7 °F 8.6 °F 58% 30.35 in 10.0 mi South 8.1 mph - N/A   Mostly Cloudy
2:53 PM 24.8 °F 13.4 °F 6.8 °F 46% 30.33 in 10.0 mi SSW 12.7 mph - N/A   Mostly Cloudy
3:51 PM 24.8 °F 9.6 °F 6.8 °F 46% 30.31 in 10.0 mi South 23.0 mph 29.9 mph N/A   Mostly Cloudy
4:52 PM 24.8 °F 14.0 °F 6.8 °F 46% 30.30 in 10.0 mi SSW 11.5 mph 29.9 mph N/A   Partly Cloudy
5:53 PM 21.2 °F 7.8 °F 6.8 °F 54% 30.32 in 10.0 mi SSW 15.0 mph 28.8 mph N/A   Partly Cloudy
6:53 PM 19.4 °F 5.0 °F 6.8 °F 58% 30.34 in 10.0 mi South 16.1 mph - N/A   Partly Cloudy
7:54 PM 19.4 °F 7.2 °F 8.6 °F 63% 30.35 in 10.0 mi South 11.5 mph 19.6 mph N/A   Scattered Clouds
8:51 PM 21.2 °F 10.9 °F 8.6 °F 58% 30.37 in 10.0 mi SW 9.2 mph - N/A   Mostly Cloudy
8:55 PM 21.2 °F 10.9 °F 8.6 °F 58% 30.36 in 10.0 mi SW 9.2 mph - N/A   Overcast
9:15 PM 21.2 °F 8.9 °F 8.6 °F 58% 30.37 in 10.0 mi SW 12.7 mph - N/A   Overcast
9:35 PM 19.4 °F 6.0 °F 8.6 °F 63% 30.37 in 10.0 mi South 13.8 mph - N/A   Overcast
9:55 PM 21.2 °F 10.9 °F 8.6 °F 58% 30.37 in 10.0 mi WSW 9.2 mph - N/A   Overcast
10:15 PM 21.2 °F 9.5 °F 10.4 °F 63% 30.37 in 10.0 mi WSW 11.5 mph - N/A   Overcast
10:35 PM 21.2 °F 11.7 °F 8.6 °F 58% 30.38 in 10.0 mi West 8.1 mph - N/A   Overcast
10:55 PM 21.2 °F 8.9 °F 8.6 °F 58% 30.39 in 10.0 mi WSW 12.7 mph - N/A   Overcast
11:15 PM 21.2 °F 11.7 °F 8.6 °F 58% 30.39 in 10.0 mi West 8.1 mph - N/A   Overcast
11:35 PM 21.2 °F 12.6 °F 10.4 °F 63% 30.39 in 10.0 mi West 6.9 mph - N/A   Overcast
11:55 PM 21.2 °F 16.4 °F 10.4 °F 63% 30.40 in 10.0 mi NNW 3.5 mph - N/A   Overcast